Chicago Midway, IL

8:49 PM CST on December 10, 2019 (GMT -0600)
Chicago-Midway

Weather History for KMDW - October, 2019

Change the Weather History Date:

Saturday, October 19, 2019

  Actual Average Record
Temperature  
Mean Temperature 58 °F 53 °F  
Max Temperature 70 °F 62 °F 84 °F (1971)
Min Temperature 46 °F 45 °F 24 °F (1930)
Degree Days  
Heating Degree Days 7 12  
Month to date heating degree days 174 177  
Since 1 July heating degree days 175 259  
Cooling Degree Days 0 0  
Month to date cooling degree days 21 13  
Year to date cooling degree days 1131 1042  
Growing Degree Days 8 (Base 50)    
Moisture  
Dew Point 41 °F    
Average Humidity 54    
Maximum Humidity 76    
Minimum Humidity 24    
Precipitation  
Precipitation T in 0.10 in 1.41 in (1961)
Month to date precipitation 1.44 1.92  
Year to date precipitation 39.26 31.78  
Sea Level Pressure  
Sea Level Pressure 29.80 in    
Wind  
Wind Speed 8 mph (South)    
Max Wind Speed 18 mph    
Max Gust Speed 32 mph    
Visibility 10 miles    
Events      
T = Trace of Precipitation, MM = Missing Value Source: NWS Daily Summary

Daily Weather History Graph

Daily Weather History Graph

Search for Another Location

Airport or City:

Astronomy

Oct. 19, 2019 Rise Set
Actual Time 7:07 AM CDT 6:03 PM CDT
Civil Twilight 6:39 AM CDT 6:31 PM CDT
Nautical Twilight 6:07 AM CDT 7:04 PM CDT
Astronomical Twilight 5:34 AM CDT 7:36 PM CDT
Moon 10:08 PM CDT (10/19) 12:43 PM CDT (10/19)
Length of Visible Light 11h 52m
Length of Day
10h 56m
Waning Gibbous, 69% of the Moon is Illuminated
Oct 19
Waning Gibbous
Oct 21
Last Quarter
Oct 27
New
Nov 4
First Quarter
Nov 12
Full

Hourly Weather History & Observations

Time (CDT) Temp. Windchill Dew Point Humidity Pressure Visibility Wind Dir Wind Speed Gust Speed Precip Events Conditions
12:53 AM 50.0 °F - 39.0 °F 66% 29.90 in 10.0 mi South 8.1 mph - N/A   Clear
1:53 AM 50.0 °F - 39.0 °F 66% 29.89 in 10.0 mi South 6.9 mph - N/A   Clear
2:53 AM 48.0 °F - 39.0 °F 71% 29.88 in 10.0 mi SSE 8.1 mph - N/A   Clear
3:53 AM 46.9 °F - 37.9 °F 71% 29.88 in 10.0 mi South 5.8 mph - N/A   Clear
4:53 AM 46.9 °F - 39.0 °F 74% 29.89 in 10.0 mi SSE 5.8 mph - N/A   Scattered Clouds
5:53 AM 46.0 °F 42.5 °F 39.0 °F 76% 29.89 in 10.0 mi SSE 6.9 mph - N/A   Mostly Cloudy
6:53 AM 48.0 °F - 39.0 °F 71% 29.88 in 10.0 mi South 9.2 mph - N/A   Mostly Cloudy
7:53 AM 48.0 °F - 39.0 °F 71% 29.88 in 10.0 mi South 6.9 mph - N/A   Partly Cloudy
8:53 AM 53.1 °F - 39.9 °F 61% 29.87 in 10.0 mi South 10.4 mph - N/A   Scattered Clouds
9:53 AM 55.9 °F - 41.0 °F 57% 29.85 in 10.0 mi South 11.5 mph 19.6 mph N/A   Mostly Cloudy
10:53 AM 60.1 °F - 42.1 °F 51% 29.83 in 10.0 mi South 9.2 mph - N/A   Mostly Cloudy
11:53 AM 62.1 °F - 42.1 °F 48% 29.82 in 10.0 mi SSW 12.7 mph - N/A   Mostly Cloudy
12:53 PM 64.9 °F - 44.1 °F 47% 29.78 in 10.0 mi South 12.7 mph 25.3 mph N/A   Mostly Cloudy
1:53 PM 68.0 °F - 43.0 °F 40% 29.74 in 10.0 mi SSW 13.8 mph 23.0 mph N/A   Scattered Clouds
2:53 PM 69.1 °F - 42.1 °F 38% 29.72 in 10.0 mi South 12.7 mph - N/A   Mostly Cloudy
3:53 PM 70.0 °F - 41.0 °F 35% 29.71 in 10.0 mi South 12.7 mph 19.6 mph N/A   Mostly Cloudy
4:53 PM 68.0 °F - 39.0 °F 35% 29.73 in 10.0 mi SSW 11.5 mph - N/A   Mostly Cloudy
5:53 PM 66.9 °F - 41.0 °F 39% 29.73 in 10.0 mi Variable 6.9 mph - N/A   Mostly Cloudy
6:53 PM 66.0 °F - 41.0 °F 40% 29.73 in 10.0 mi South 5.8 mph - N/A   Overcast
7:53 PM 63.0 °F - 43.0 °F 48% 29.74 in 10.0 mi SW 5.8 mph - N/A   Overcast
8:53 PM 63.0 °F - 43.0 °F 48% 29.74 in 10.0 mi SSW 4.6 mph - N/A   Overcast
9:53 PM 61.0 °F - 44.1 °F 54% 29.74 in 10.0 mi South 5.8 mph - N/A   Overcast
10:53 PM 60.1 °F - 45.0 °F 57% 29.75 in 10.0 mi SW 6.9 mph - N/A   Overcast
11:53 PM 59.0 °F - 48.0 °F 67% 29.75 in 10.0 mi WSW 4.6 mph - 0.00 in   Overcast